When you browse on this site, cookies collect data to enhance your experience and personalize the content and advertising you see.
Visit our Privacy Policy to learn more. By continuing to use the site, you agree to this use of cookies and data.
  • en Suisse
  • Liste des pays
  • À 7 jours
  • Température de l'eau
  • Carte satellitaire
  • Carte météo
  • Widgets météo
  • user-avatar
    Se connecter

    Météo par heure à Borken

    Ce jour, 26 Mai, Dimanche

    Heure Température Précipitation Vent Pression Humidité
    00:00 +12°C° 0 mm 1 m/s 758 mmHg 87%
    01:00 +11°C° 0 mm 1 m/s 758 mmHg 88%
    02:00 +10°C° 0 mm 2 m/s 757 mmHg 89%
    03:00 +10°C° 0 mm 3 m/s 757 mmHg 90%
    04:00 +11°C° 0 mm 3 m/s 757 mmHg 87%
    05:00 +12°C° 0 mm 4 m/s 757 mmHg 84%
    06:00 +13°C° 0 mm 5 m/s 756 mmHg 80%
    07:00 +15°C° 0 mm 5 m/s 756 mmHg 75%
    08:00 +16°C° 0 mm 6 m/s 756 mmHg 71%
    09:00 +19°C° 0 mm 6 m/s 756 mmHg 66%
    10:00 +20°C° 0.1 mm 6 m/s 755 mmHg 67%
    11:00 +20°C° 0.1 mm 6 m/s 755 mmHg 68%
    12:00 +20°C° 0.1 mm 6 m/s 755 mmHg 70%
    13:00 +21°C° 0.2 mm 6 m/s 754 mmHg 70%
    14:00 +21°C° 0.2 mm 6 m/s 754 mmHg 70%
    15:00 +21°C° 0.2 mm 6 m/s 754 mmHg 70%
    16:00 +20°C° 0.1 mm 6 m/s 753 mmHg 72%
    17:00 +19°C° 0.1 mm 5 m/s 753 mmHg 75%
    18:00 +19°C° 0.1 mm 5 m/s 753 mmHg 78%
    19:00 +17°C° 0 mm 5 m/s 753 mmHg 79%
    20:00 +16°C° 0 mm 5 m/s 753 mmHg 80%
    21:00 +16°C° 0 mm 6 m/s 753 mmHg 82%
    22:00 +15°C° 0.5 mm 5 m/s 753 mmHg 85%
    23:00 +15°C° 0.5 mm 5 m/s 753 mmHg 88%

    Demain, 27 Mai, Lundi

    Heure Température Précipitation Vent Pression Humidité
    00:00 +14°C° 0.5 mm 5 m/s 752 mmHg 92%
    01:00 +14°C° 0.6 mm 5 m/s 752 mmHg 92%
    02:00 +13°C° 0.6 mm 4 m/s 752 mmHg 93%
    03:00 +13°C° 0.6 mm 3 m/s 752 mmHg 93%
    04:00 +13°C° 0 mm 3 m/s 752 mmHg 91%
    05:00 +13°C° 0 mm 3 m/s 753 mmHg 89%
    06:00 +13°C° 0 mm 4 m/s 753 mmHg 86%
    07:00 +14°C° 0 mm 4 m/s 753 mmHg 79%
    08:00 +15°C° 0 mm 4 m/s 753 mmHg 71%
    09:00 +16°C° 0 mm 5 m/s 753 mmHg 64%
    10:00 +16°C° 0 mm 5 m/s 753 mmHg 62%
    11:00 +17°C° 0 mm 5 m/s 753 mmHg 60%
    12:00 +17°C° 0 mm 5 m/s 753 mmHg 58%
    13:00 +17°C° 0 mm 5 m/s 753 mmHg 57%
    14:00 +17°C° 0 mm 5 m/s 753 mmHg 57%
    15:00 +17°C° 0 mm 5 m/s 753 mmHg 57%
    16:00 +17°C° 0 mm 4 m/s 753 mmHg 60%
    17:00 +17°C° 0 mm 3 m/s 753 mmHg 64%
    18:00 +16°C° 0 mm 2 m/s 753 mmHg 68%
    19:00 +15°C° 0 mm 2 m/s 753 mmHg 72%
    20:00 +13°C° 0 mm 1 m/s 753 mmHg 76%
    21:00 +10°C° 0 mm 0 m/s 753 mmHg 80%
    22:00 +11°C° 0 mm 1 m/s 752 mmHg 80%
    23:00 +11°C° 0 mm 1 m/s 752 mmHg 80%

    Après-demain, 28 Mai, Mardi

    Heure Température Précipitation Vent Pression Humidité
    00:00 +11°C° 0 mm 1 m/s 752 mmHg 80%
    01:00 +11°C° 0 mm 1 m/s 752 mmHg 78%
    02:00 +11°C° 0 mm 1 m/s 751 mmHg 76%
    03:00 +10°C° 0 mm 2 m/s 751 mmHg 75%
    04:00 +12°C° 0.4 mm 2 m/s 751 mmHg 79%
    05:00 +11°C° 0.4 mm 3 m/s 751 mmHg 83%
    06:00 +11°C° 0.4 mm 3 m/s 750 mmHg 88%
    07:00 +12°C° 0.5 mm 3 m/s 750 mmHg 83%
    08:00 +13°C° 0.5 mm 3 m/s 750 mmHg 78%
    09:00 +16°C° 0.5 mm 3 m/s 750 mmHg 74%
    10:00 +16°C° 0.8 mm 3 m/s 750 mmHg 71%
    11:00 +17°C° 0.8 mm 4 m/s 750 mmHg 69%
    12:00 +17°C° 0.8 mm 4 m/s 750 mmHg 66%
    13:00 +17°C° 0.4 mm 4 m/s 750 mmHg 66%
    14:00 +17°C° 0.4 mm 4 m/s 750 mmHg 67%
    15:00 +18°C° 0.4 mm 4 m/s 750 mmHg 67%
    16:00 +17°C° 0.7 mm 3 m/s 751 mmHg 72%
    17:00 +16°C° 0.7 mm 3 m/s 751 mmHg 77%
    18:00 +14°C° 0.7 mm 3 m/s 751 mmHg 82%
    19:00 +13°C° 0.3 mm 3 m/s 752 mmHg 86%
    20:00 +12°C° 0.3 mm 3 m/s 753 mmHg 89%
    21:00 +10°C° 0.3 mm 3 m/s 753 mmHg 93%
    22:00 +10°C° 0 mm 3 m/s 754 mmHg 94%
    23:00 +9°C° 0 mm 3 m/s 754 mmHg 94%

    29 Mai, Mercredi

    Heure Température Précipitation Vent Pression Humidité
    00:00 +8°C° 0 mm 3 m/s 754 mmHg 95%
    01:00 +7°C° 0 mm 3 m/s 755 mmHg 95%
    02:00 +7°C° 0 mm 3 m/s 755 mmHg 95%
    03:00 +5°C° 0 mm 3 m/s 756 mmHg 95%
    04:00 +7°C° 0 mm 3 m/s 756 mmHg 92%
    05:00 +8°C° 0 mm 3 m/s 757 mmHg 89%
    06:00 +9°C° 0 mm 3 m/s 757 mmHg 87%
    07:00 +10°C° 0 mm 3 m/s 758 mmHg 80%
    08:00 +11°C° 0 mm 3 m/s 758 mmHg 73%
    09:00 +14°C° 0 mm 2 m/s 759 mmHg 66%
    10:00 +14°C° 0.1 mm 2 m/s 759 mmHg 63%
    11:00 +15°C° 0.1 mm 2 m/s 759 mmHg 61%
    12:00 +15°C° 0.1 mm 2 m/s 760 mmHg 58%
    13:00 +16°C° 0.1 mm 2 m/s 760 mmHg 57%
    14:00 +16°C° 0.1 mm 2 m/s 760 mmHg 56%
    15:00 +17°C° 0.1 mm 3 m/s 760 mmHg 55%
    16:00 +16°C° 0.1 mm 3 m/s 760 mmHg 61%
    17:00 +14°C° 0.1 mm 3 m/s 760 mmHg 68%
    18:00 +13°C° 0.1 mm 3 m/s 760 mmHg 75%
    19:00 +11°C° 0 mm 3 m/s 761 mmHg 79%
    20:00 +10°C° 0 mm 2 m/s 761 mmHg 83%
    21:00 +10°C° 0 mm 1 m/s 762 mmHg 87%
    22:00 +9°C° 0 mm 1 m/s 762 mmHg 88%
    23:00 +9°C° 0 mm 1 m/s 762 mmHg 88%

    30 Mai, Jeudi

    Heure Température Précipitation Vent Pression Humidité
    00:00 +9°C° 0 mm 1 m/s 762 mmHg 88%
    01:00 +9°C° 0 mm 1 m/s 762 mmHg 88%
    02:00 +9°C° 0 mm 1 m/s 762 mmHg 88%
    03:00 +9°C° 0 mm 1 m/s 762 mmHg 88%
    04:00 +9°C° 0 mm 2 m/s 762 mmHg 85%
    05:00 +10°C° 0 mm 2 m/s 762 mmHg 82%
    06:00 +11°C° 0 mm 3 m/s 762 mmHg 78%
    07:00 +13°C° 0 mm 4 m/s 762 mmHg 72%
    08:00 +14°C° 0 mm 4 m/s 762 mmHg 66%
    09:00 +16°C° 0 mm 5 m/s 762 mmHg 60%
    10:00 +16°C° 0.1 mm 5 m/s 762 mmHg 59%
    11:00 +17°C° 0.1 mm 6 m/s 762 mmHg 57%
    12:00 +19°C° 0.1 mm 6 m/s 762 mmHg 56%
    13:00 +17°C° 0 mm 6 m/s 762 mmHg 59%
    14:00 +17°C° 0 mm 5 m/s 762 mmHg 62%
    15:00 +17°C° 0 mm 4 m/s 762 mmHg 66%
    16:00 +16°C° 0.2 mm 3 m/s 762 mmHg 72%
    17:00 +14°C° 0.2 mm 3 m/s 762 mmHg 77%
    18:00 +14°C° 0.2 mm 2 m/s 762 mmHg 83%
    19:00 +14°C° 0.5 mm 2 m/s 762 mmHg 87%
    20:00 +13°C° 0.5 mm 3 m/s 762 mmHg 90%
    21:00 +12°C° 0.5 mm 3 m/s 762 mmHg 94%
    22:00 +12°C° 0.5 mm 3 m/s 762 mmHg 94%
    23:00 +13°C° 0.5 mm 4 m/s 762 mmHg 95%

    31 Mai, Vendredi

    Heure Température Précipitation Vent Pression Humidité
    00:00 +13°C° 0.5 mm 4 m/s 762 mmHg 96%
    01:00 +13°C° 0.5 mm 4 m/s 762 mmHg 96%
    02:00 +14°C° 0.5 mm 5 m/s 762 mmHg 96%
    03:00 +14°C° 0.5 mm 5 m/s 762 mmHg 96%
    04:00 +14°C° 0.3 mm 4 m/s 763 mmHg 96%
    05:00 +13°C° 0.3 mm 3 m/s 763 mmHg 96%
    06:00 +14°C° 0.3 mm 2 m/s 763 mmHg 95%
    07:00 +15°C° 0 mm 2 m/s 764 mmHg 91%
    08:00 +15°C° 0 mm 2 m/s 764 mmHg 86%
    09:00 +16°C° 0 mm 1 m/s 764 mmHg 82%
    10:00 +16°C° 0.3 mm 1 m/s 764 mmHg 83%
    11:00 +18°C° 0.3 mm 1 m/s 764 mmHg 84%
    12:00 +18°C° 0.3 mm 1 m/s 764 mmHg 84%
    13:00 +18°C° 0.5 mm 1 m/s 764 mmHg 87%
    14:00 +17°C° 0.5 mm 2 m/s 764 mmHg 90%
    15:00 +17°C° 0.5 mm 2 m/s 764 mmHg 92%
    16:00 +17°C° 0.3 mm 3 m/s 764 mmHg 92%
    17:00 +17°C° 0.3 mm 3 m/s 764 mmHg 92%
    18:00 +17°C° 0.3 mm 4 m/s 764 mmHg 91%
    19:00 +16°C° 0 mm 3 m/s 764 mmHg 93%
    20:00 +16°C° 0 mm 2 m/s 765 mmHg 94%
    21:00 +15°C° 0 mm 2 m/s 765 mmHg 96%
    22:00 +15°C° 0 mm 2 m/s 765 mmHg 96%
    23:00 +15°C° 0 mm 2 m/s 765 mmHg 96%
    Voir plus